Home > Weather > Beaumont > Past weeks

Flag for U.S.A. Weather for the Past 2 Weeks in Beaumont, Texas, U.S.A.

Now
50 °F

Clear.


Feels Like: 48 °F
Forecast: 41 / 58 °F
Wind: 5 mph from Southwest

Location: Jefferson County Airport

Current Time: Feb 7, 2016 at 7:57:34 PM

Latest Report: Feb 7, 2016 at 6:53 PM


Visibility: 10 mi

Pressure: 30.17 "Hg

Humidity: 80%

Dew point: 44 °F

Location of BeaumontLocation

Historic Weather in Beaumont — Graph

°F

Beaumont Temperature Yesterday

Maximum temperature yesterday: 55 °F (at 1:53 PM)
Minimum temperature yesterday: 38 °F (at 11:53 PM)
Average temperature yesterday: 47 °F

High & Low Weather Summary for the Past Weeks

 TemperatureHumidityPressure
High77 °F (Jan 31, 12:53 PM)100% (Jan 29, 2:53 AM)30.50 "Hg (Jan 29, 2:53 AM)
Low31 °F (Jan 28, 5:53 AM)24% (Jan 29, 1:53 PM)29.64 "Hg (Feb 2, 2:53 AM)
Average54 °F76%30.09 "Hg
* Reported Jan 23 6:53 PM — Feb 7 6:53 PM, Beaumont, Weather by CustomWeather, © 2016

Note: Actual official high and low records may vary slightly from our data, if they occured in-between our weather recording intervals... More about our weather records

Advertising

Beaumont Weather History for the Previous 24 Hours

 ConditionsComfort  
Time TempWeatherWind HumidityBarometerVisibility
6:53 PM
Sun, Feb 7
50 °FClear.5 mph80%30.17 "Hg10 mi
5:53 PM53 °FSunny.7 mph69%30.17 "Hg10 mi
4:53 PM57 °FSunny.10 mph60%30.18 "Hg10 mi
3:53 PM58 °FSunny.15 mph58%30.16 "Hg10 mi
2:53 PM60 °FSunny.12 mph52%30.17 "Hg10 mi
1:53 PM61 °FSunny.10 mph42%30.20 "Hg10 mi
12:53 PM59 °FSunny.N/A48%30.25 "Hg10 mi
11:53 AM58 °FSunny.3 mph51%30.28 "Hg10 mi
10:53 AM56 °FSunny.6 mph58%30.30 "Hg10 mi
9:53 AM51 °FSunny.5 mph71%30.31 "Hg10 mi
8:53 AM44 °FFog.No wind96%30.31 "Hg6 mi
7:53 AM34 °FFog.No wind100%30.31 "Hg0 mi
6:53 AM33 °FFog.3 mph96%30.30 "Hg0 mi
5:53 AM32 °FFog.No wind100%30.30 "Hg0 mi
4:53 AM32 °FFog.No wind100%30.31 "Hg0 mi
3:53 AM35 °FFog.No wind96%30.32 "Hg1 mi
2:53 AM37 °FFog.5 mph100%30.35 "Hg4 mi
2:01 AM37 °FFog.6 mph96%30.35 "Hg4 mi
1:01 AM37 °FFog.No wind96%30.34 "Hg2 mi
11:53 PM
Sat, Feb 6
38 °FFog.3 mph97%30.37 "Hg5 mi
10:53 PM40 °FClear.3 mph97%30.37 "Hg8 mi
9:53 PM40 °FFog.No wind100%30.36 "Hg4 mi
8:53 PM43 °FClear.3 mph89%30.35 "Hg10 mi
7:53 PM43 °FClear.6 mph89%30.34 "Hg10 mi
Weather by CustomWeather, © 2016

See weather overviewHow to use our weather pages